�������l�o���
Date,Time,MP-1(��Sv/h),MP-2(��Sv/h),MP-3(��Sv/h),MP-4(��Sv/h),MP-5(��Sv/h),MP-6(��Sv/h),MP-7(��Sv/h),MP-8(��Sv/h),����,����(m/s),���J
2017/09/30,00:00,0.927,1.470,0.952,1.755,1.206,0.508,0.928,0.856,��,5.1,��
2017/09/30,00:10,0.926,1.471,0.952,1.753,1.204,0.510,0.926,0.856,��,5.0,��
2017/09/30,00:20,0.925,1.469,0.951,1.751,1.203,0.507,0.926,0.856,��,4.6,��
2017/09/30,00:30,0.927,1.469,0.952,1.751,1.206,0.507,0.928,0.859,��,5.5,��
2017/09/30,00:40,0.925,1.467,0.951,1.755,1.206,0.506,0.929,0.856,���k��,6.4,��
2017/09/30,00:50,0.923,1.470,0.952,1.752,1.207,0.507,0.927,0.857,���k��,6.1,��
2017/09/30,01:00,0.924,1.468,0.951,1.751,1.204,0.506,0.927,0.857,���k��,5.8,��
2017/09/30,01:10,0.926,1.468,0.951,1.754,1.204,0.507,0.927,0.856,�k��,4.6,��
2017/09/30,01:20,0.925,1.468,0.953,1.753,1.206,0.507,0.927,0.858,�k��,3.4,��
2017/09/30,01:30,0.925,1.470,0.951,1.752,1.207,0.507,0.927,0.856,�k��,1.2,��
2017/09/30,01:40,0.927,1.466,0.952,1.753,1.202,0.508,0.931,0.857,-,CALM,��
2017/09/30,01:50,0.926,1.465,0.950,1.755,1.203,0.508,0.927,0.855,�쐼,0.6,��
2017/09/30,02:00,0.926,1.466,0.952,1.753,1.207,0.506,0.926,0.856,���쐼,0.8,��
2017/09/30,02:10,0.927,1.466,0.950,1.752,1.205,0.505,0.927,0.858,���k��,1.1,��
2017/09/30,02:20,0.925,1.468,0.951,1.752,1.203,0.507,0.928,0.855,�k�k��,2.9,��
2017/09/30,02:30,0.926,1.470,0.952,1.753,1.205,0.507,0.930,0.854,�k,2.5,��
2017/09/30,02:40,0.924,1.470,0.952,1.753,1.205,0.506,0.928,0.856,�k�k��,3.4,��
2017/09/30,02:50,0.926,1.471,0.952,1.753,1.205,0.506,0.928,0.857,�k��,3.2,��
2017/09/30,03:00,0.923,1.471,0.951,1.751,1.204,0.507,0.929,0.855,�k�k��,2.8,��
2017/09/30,03:10,0.924,1.468,0.948,1.749,1.205,0.506,0.928,0.856,�k�k��,3.1,��
2017/09/30,03:20,0.923,1.470,0.953,1.751,1.204,0.506,0.929,0.856,�k,2.3,��
2017/09/30,03:30,0.923,1.470,0.950,1.752,1.205,0.507,0.928,0.857,�k�k��,2.8,��
2017/09/30,03:40,0.923,1.468,0.950,1.754,1.205,0.507,0.928,0.856,�k�k��,2.8,��
2017/09/30,03:50,0.926,1.470,0.951,1.754,1.205,0.506,0.928,0.856,�k��,2.8,��
2017/09/30,04:00,0.925,1.469,0.952,1.753,1.206,0.505,0.927,0.856,�k��,1.9,��
2017/09/30,04:10,0.924,1.470,0.950,1.752,1.204,0.507,0.927,0.856,�k��,1.4,��
2017/09/30,04:20,0.926,1.469,0.950,1.751,1.204,0.505,0.929,0.856,���k��,1.4,��
2017/09/30,04:30,0.924,1.469,0.950,1.753,1.204,0.506,0.927,0.855,���k��,1.5,��
2017/09/30,04:40,0.924,1.468,0.948,1.754,1.205,0.507,0.927,0.855,���k��,1.2,��
2017/09/30,04:50,0.927,1.470,0.950,1.749,1.203,0.506,0.927,0.856,��,0.8,��
2017/09/30,05:00,0.924,1.469,0.949,1.751,1.204,0.506,0.928,0.855,���k��,0.8,��
2017/09/30,05:10,0.924,1.470,0.948,1.749,1.205,0.504,0.926,0.857,��,0.8,��
2017/09/30,05:20,0.924,1.467,0.949,1.751,1.205,0.506,0.927,0.856,���쐼,0.9,��
2017/09/30,05:30,0.925,1.471,0.950,1.752,1.206,0.506,0.928,0.857,���쐼,1.7,��
2017/09/30,05:40,0.924,1.469,0.949,1.754,1.206,0.505,0.928,0.856,��,1.4,��
2017/09/30,05:50,0.923,1.469,0.951,1.751,1.204,0.506,0.925,0.856,��,1.4,��
2017/09/30,06:00,0.926,1.469,0.949,1.749,1.208,0.505,0.926,0.854,��,0.9,��
2017/09/30,06:10,0.923,1.469,0.950,1.750,1.203,0.504,0.926,0.855,-,CALM,��
2017/09/30,06:20,0.925,1.470,0.949,1.752,1.204,0.505,0.925,0.855,��쓌,0.6,��
2017/09/30,06:30,0.923,1.467,0.951,1.755,1.203,0.506,0.927,0.855,��쐼,0.6,��
2017/09/30,06:40,0.922,1.468,0.950,1.754,1.204,0.506,0.926,0.856,�쐼,0.8,��
2017/09/30,06:50,0.924,1.468,0.950,1.751,1.205,0.504,0.928,0.856,���쐼,0.6,��
2017/09/30,07:00,0.924,1.469,0.950,1.752,1.205,0.507,0.928,0.856,�쐼,0.6,��
2017/09/30,07:10,0.924,1.470,0.951,1.754,1.206,0.505,0.926,0.854,���k��,1.2,��
2017/09/30,07:20,0.924,1.470,0.951,1.755,1.205,0.505,0.928,0.856,���쐼,1.2,��
2017/09/30,07:30,0.925,1.473,0.951,1.755,1.205,0.504,0.927,0.856,��,0.8,��
2017/09/30,07:40,0.925,1.473,0.952,1.753,1.205,0.505,0.926,0.855,-,CALM,��
2017/09/30,07:50,0.925,1.472,0.953,1.756,1.205,0.507,0.928,0.857,���쓌,0.6,��
2017/09/30,08:00,0.927,1.470,0.954,1.754,1.207,0.506,0.927,0.858,��쓌,1.1,��
2017/09/30,08:10,0.926,1.467,0.952,1.754,1.209,0.505,0.928,0.858,�쓌,1.7,��
2017/09/30,08:20,0.924,1.470,0.953,1.757,1.208,0.504,0.925,0.857,��쓌,1.7,��
2017/09/30,08:30,0.927,1.468,0.952,1.755,1.209,0.507,0.926,0.858,�쓌,2.0,��
2017/09/30,08:40,0.927,1.466,0.952,1.757,1.207,0.506,0.924,0.857,�쓌,2.5,��
2017/09/30,08:50,0.927,1.466,0.952,1.754,1.205,0.504,0.927,0.854,��쓌,3.1,��
2017/09/30,09:00,0.925,1.464,0.952,1.755,1.207,0.503,0.928,0.855,�쓌,2.5,��
2017/09/30,09:10,0.928,1.464,0.954,1.757,1.207,0.504,0.926,0.855,��쓌,4.0,��
2017/09/30,09:20,0.927,1.465,0.953,1.757,1.206,0.506,0.928,0.854,��쓌,2.6,��
2017/09/30,09:30,0.928,1.467,0.953,1.757,1.208,0.505,0.927,0.855,��,3.1,��
2017/09/30,09:40,0.927,1.468,0.954,1.761,1.207,0.505,0.927,0.857,��,0.9,��
2017/09/30,09:50,0.925,1.468,0.955,1.758,1.207,0.504,0.928,0.855,��,3.2,��
2017/09/30,10:00,0.927,1.471,0.953,1.756,1.205,0.504,0.929,0.854,��,5.8,��
2017/09/30,10:10,0.929,1.469,0.952,1.763,1.208,0.505,0.926,0.854,��,6.5,��
2017/09/30,10:20,0.929,1.470,0.952,1.760,1.208,0.505,0.927,0.854,��,5.2,��
2017/09/30,10:30,0.927,1.473,0.953,1.762,1.209,0.505,0.931,0.856,��,6.6,��
2017/09/30,10:40,0.929,1.471,0.954,1.764,1.210,0.507,0.927,0.854,��,5.3,��
2017/09/30,10:50,0.928,1.473,0.955,1.761,1.212,0.506,0.928,0.856,���k��,7.0,��
2017/09/30,11:00,0.930,1.473,0.956,1.762,1.211,0.506,0.931,0.854,���k��,7.4,��
2017/09/30,11:10,0.930,1.474,0.955,1.764,1.209,0.507,0.929,0.856,��,7.8,��
2017/09/30,11:20,0.931,1.473,0.956,1.762,1.211,0.508,0.932,0.856,��,7.1,��
2017/09/30,11:30,0.930,1.472,0.957,1.764,1.213,0.508,0.928,0.857,��,4.9,��
2017/09/30,11:40,0.932,1.471,0.956,1.764,1.215,0.507,0.931,0.856,��,3.8,��
2017/09/30,11:50,0.933,1.475,0.954,1.764,1.214,0.508,0.931,0.856,��,3.6,��
2017/09/30,12:00,0.932,1.477,0.957,1.766,1.214,0.507,0.930,0.857,���쐼,3.1,��
2017/09/30,12:10,0.932,1.478,0.960,1.764,1.214,0.508,0.931,0.857,��쓌,4.2,��
2017/09/30,12:20,0.931,1.479,0.957,1.765,1.215,0.508,0.931,0.856,��쓌,7.4,��
2017/09/30,12:30,0.932,1.477,0.958,1.769,1.214,0.510,0.930,0.856,��쓌,7.8,��
2017/09/30,12:40,0.931,1.484,0.958,1.768,1.217,0.507,0.930,0.855,��,5.3,��
2017/09/30,12:50,0.932,1.481,0.961,1.768,1.216,0.507,0.931,0.858,��,5.0,��
2017/09/30,13:00,0.932,1.482,0.959,1.769,1.213,0.509,0.928,0.857,��,6.1,��
2017/09/30,13:10,0.933,1.481,0.958,1.768,1.214,0.508,0.931,0.856,��,5.2,��
2017/09/30,13:20,0.933,1.479,0.959,1.769,1.217,0.509,0.930,0.856,��쓌,5.8,��
2017/09/30,13:30,0.935,1.477,0.956,1.767,1.218,0.508,0.931,0.855,��쓌,4.8,��
2017/09/30,13:40,0.932,1.479,0.955,1.769,1.217,0.508,0.932,0.857,��쓌,5.9,��
2017/09/30,13:50,0.934,1.478,0.961,1.766,1.217,0.507,0.930,0.858,��,5.8,��
2017/09/30,14:00,0.935,1.479,0.959,1.771,1.217,0.508,0.930,0.857,��,4.9,��
2017/09/30,14:10,0.933,1.476,0.960,1.773,1.216,0.509,0.930,0.859,��쓌,6.9,��
2017/09/30,14:20,0.935,1.479,0.958,1.768,1.217,0.508,0.932,0.857,��쓌,7.8,��
2017/09/30,14:30,0.934,1.481,0.959,1.769,1.219,0.510,0.930,0.857,��쓌,7.7,��
2017/09/30,14:40,0.932,1.481,0.960,1.768,1.219,0.509,0.930,0.856,��쓌,9.1,��
2017/09/30,14:50,0.934,1.482,0.959,1.769,1.216,0.507,0.931,0.856,��쓌,7.9,��
2017/09/30,15:00,0.934,1.483,0.959,1.768,1.218,0.508,0.931,0.856,��쓌,7.0,��
2017/09/30,15:10,0.936,1.484,0.959,1.769,1.219,0.508,0.929,0.858,��쓌,7.4,��
2017/09/30,15:20,0.934,1.484,0.961,1.768,1.218,0.510,0.931,0.858,��쓌,7.4,��
2017/09/30,15:30,0.936,1.484,0.959,1.768,1.218,0.509,0.932,0.858,��쓌,6.1,��
2017/09/30,15:40,0.937,1.486,0.961,1.769,1.217,0.508,0.931,0.857,��쐼,4.8,��
2017/09/30,15:50,0.936,1.484,0.960,1.769,1.218,0.511,0.931,0.857,��쓌,3.6,��
2017/09/30,16:00,0.934,1.485,0.960,1.770,1.220,0.510,0.930,0.858,��,3.6,��
2017/09/30,16:10,0.934,1.483,0.960,1.768,1.218,0.513,0.930,0.858,��,2.6,��
2017/09/30,16:20,0.935,1.486,0.960,1.769,1.219,0.510,0.931,0.857,�쐼,3.2,��
2017/09/30,16:30,0.936,1.487,0.960,1.767,1.219,0.511,0.930,0.856,��쐼,3.7,��
2017/09/30,16:40,0.936,1.486,0.961,1.772,1.216,0.510,0.931,0.858,��쐼,3.9,��
2017/09/30,16:50,0.934,1.487,0.959,1.772,1.218,0.510,0.931,0.858,��쐼,3.1,��
2017/09/30,17:00,0.936,1.490,0.960,1.770,1.218,0.512,0.930,0.858,�쐼,3.0,��
2017/09/30,17:10,0.933,1.489,0.958,1.770,1.220,0.513,0.930,0.860,��쐼,3.1,��
2017/09/30,17:20,0.933,1.492,0.959,1.771,1.218,0.510,0.932,0.858,��,2.3,��
2017/09/30,17:30,0.934,1.492,0.961,1.770,1.218,0.512,0.933,0.860,��,2.6,��
2017/09/30,17:40,0.936,1.490,0.964,1.770,1.221,0.512,0.931,0.858,��,2.6,��
2017/09/30,17:50,0.934,1.491,0.965,1.767,1.220,0.510,0.933,0.860,�쐼,1.2,��
2017/09/30,18:00,0.935,1.489,0.960,1.771,1.221,0.511,0.932,0.859,��,2.3,��
2017/09/30,18:10,0.935,1.490,0.963,1.770,1.221,0.511,0.932,0.860,���k��,2.6,��
2017/09/30,18:20,0.934,1.489,0.964,1.769,1.220,0.508,0.932,0.859,�k�k��,3.8,��
2017/09/30,18:30,0.937,1.488,0.963,1.770,1.222,0.512,0.930,0.860,�k�k��,4.6,��
2017/09/30,18:40,0.937,1.486,0.963,1.771,1.221,0.512,0.932,0.859,���k��,5.7,��
2017/09/30,18:50,0.936,1.487,0.963,1.771,1.222,0.511,0.933,0.861,��,7.0,��
2017/09/30,19:00,0.935,1.487,0.962,1.770,1.220,0.511,0.931,0.861,��,8.4,��
2017/09/30,19:10,0.936,1.491,0.963,1.768,1.222,0.510,0.932,0.859,��,9.0,��
2017/09/30,19:20,0.937,1.488,0.961,1.768,1.220,0.510,0.931,0.859,��,7.5,��
2017/09/30,19:30,0.935,1.486,0.963,1.770,1.221,0.510,0.932,0.860,��,7.1,��
2017/09/30,19:40,0.934,1.486,0.962,1.772,1.220,0.510,0.931,0.857,��,6.4,��
2017/09/30,19:50,0.936,1.485,0.964,1.772,1.220,0.511,0.932,0.857,��,6.4,��
2017/09/30,20:00,0.935,1.488,0.962,1.771,1.222,0.508,0.931,0.859,��,7.2,��
2017/09/30,20:10,0.934,1.487,0.963,1.773,1.221,0.509,0.930,0.859,���k��,8.5,��
2017/09/30,20:20,0.933,1.488,0.960,1.772,1.221,0.509,0.930,0.859,���k��,8.6,��
2017/09/30,20:30,0.934,1.486,0.962,1.770,1.216,0.510,0.932,0.859,��,7.6,��
2017/09/30,20:40,0.934,1.487,0.962,1.770,1.221,0.510,0.932,0.858,��,7.7,��
2017/09/30,20:50,0.935,1.487,0.962,1.773,1.220,0.509,0.932,0.858,��,7.7,��
2017/09/30,21:00,0.934,1.486,0.962,1.773,1.219,0.509,0.933,0.859,��,8.5,��
2017/09/30,21:10,0.933,1.486,0.962,1.769,1.222,0.508,0.931,0.858,���k��,8.3,��
2017/09/30,21:20,0.935,1.486,0.962,1.772,1.221,0.509,0.933,0.858,��,8.1,��
2017/09/30,21:30,0.935,1.487,0.960,1.771,1.219,0.509,0.933,0.858,��,7.5,��
2017/09/30,21:40,0.933,1.485,0.962,1.771,1.222,0.509,0.932,0.858,��,6.7,��
2017/09/30,21:50,0.933,1.485,0.962,1.770,1.218,0.510,0.932,0.859,��,6.2,��
2017/09/30,22:00,0.933,1.485,0.964,1.771,1.220,0.509,0.931,0.858,��,6.8,��
2017/09/30,22:10,0.934,1.483,0.962,1.768,1.221,0.509,0.932,0.858,��,7.5,��
2017/09/30,22:20,0.936,1.486,0.959,1.771,1.222,0.508,0.932,0.860,��,7.4,��
2017/09/30,22:30,0.934,1.488,0.962,1.770,1.218,0.509,0.930,0.859,��,7.9,��
2017/09/30,22:40,0.933,1.486,0.963,1.770,1.218,0.508,0.932,0.858,��,7.0,��
2017/09/30,22:50,0.933,1.483,0.961,1.770,1.221,0.508,0.932,0.859,��,7.2,��
2017/09/30,23:00,0.933,1.487,0.962,1.769,1.220,0.508,0.932,0.859,��,7.0,��
2017/09/30,23:10,0.936,1.486,0.962,1.771,1.220,0.509,0.932,0.860,��,6.8,��
2017/09/30,23:20,0.934,1.483,0.961,1.772,1.218,0.508,0.932,0.859,��,6.9,��
2017/09/30,23:30,0.935,1.485,0.961,1.766,1.218,0.509,0.931,0.860,��,6.3,��
2017/09/30,23:40,0.933,1.485,0.961,1.770,1.218,0.509,0.933,0.858,��,5.4,��
2017/09/30,23:50,0.934,1.486,0.963,1.770,1.218,0.508,0.932,0.859,��,5.1,��
